Time,TemperatureF,DewpointF,PressureIn,WindDirection,WindDirectionDegrees,WindSpeedMPH,WindSpeedGustMPH,Humidity,HourlyPrecipIn,Conditions,Clouds,dailyrainin,SoftwareType,DateUTC
2013-03-16 00:01:00,55.0,27.0,29.69,NNE,23,2.0,2.0,34,0.00,,,0.00,,2013-03-16 07:01:00,
2013-03-16 00:11:00,55.0,27.0,29.69,NNE,23,2.0,2.0,34,0.00,,,0.00,,2013-03-16 07:11:00,
2013-03-16 00:22:00,55.0,28.0,29.69,ENE,68,2.0,3.0,35,0.00,,,0.00,,2013-03-16 07:22:00,
2013-03-16 00:31:00,54.0,27.0,29.73,North,0,1.0,3.0,35,0.00,,,0.00,,2013-03-16 07:31:00,
2013-03-16 00:41:00,54.0,27.0,29.73,North,0,1.0,3.0,35,0.00,,,0.00,,2013-03-16 07:41:00,
2013-03-16 00:52:00,54.0,27.0,29.73,ENE,68,1.0,2.0,35,0.00,,,0.00,,2013-03-16 07:52:00,
2013-03-16 01:01:00,53.0,27.0,29.73,ENE,68,1.0,3.0,36,0.00,,,0.00,,2013-03-16 08:01:00,
2013-03-16 01:11:00,53.0,27.0,29.73,ENE,68,1.0,3.0,36,0.00,,,0.00,,2013-03-16 08:11:00,
2013-03-16 01:22:00,53.0,27.0,29.73,East,90,2.0,4.0,36,0.00,,,0.00,,2013-03-16 08:22:00,
2013-03-16 01:32:00,53.0,27.0,29.73,NE,45,1.0,2.0,36,0.00,,,0.00,,2013-03-16 08:32:00,
2013-03-16 01:41:00,53.0,27.0,29.73,NE,45,1.0,2.0,36,0.00,,,0.00,,2013-03-16 08:41:00,
2013-03-16 01:52:00,53.0,27.0,29.73,ENE,68,2.0,3.0,36,0.00,,,0.00,,2013-03-16 08:52:00,
2013-03-16 02:01:00,53.0,27.0,29.73,NE,45,3.0,4.0,36,0.00,,,0.00,,2013-03-16 09:01:00,
2013-03-16 02:11:00,53.0,27.0,29.73,NE,45,3.0,4.0,36,0.00,,,0.00,,2013-03-16 09:11:00,
2013-03-16 02:21:00,52.0,26.0,29.73,NE,45,0.0,4.0,36,0.00,,,0.00,,2013-03-16 09:21:00,
2013-03-16 02:32:00,52.0,26.0,29.73,ENE,68,2.0,3.0,36,0.00,,,0.00,,2013-03-16 09:32:00,
2013-03-16 02:42:00,52.0,26.0,29.73,ENE,68,2.0,3.0,36,0.00,,,0.00,,2013-03-16 09:42:00,
2013-03-16 02:52:00,52.0,27.0,29.73,NE,45,2.0,3.0,37,0.00,,,0.00,,2013-03-16 09:52:00,
2013-03-16 03:03:00,52.0,27.0,29.69,East,90,1.0,2.0,37,0.00,,,0.00,,2013-03-16 10:03:00,
2013-03-16 03:12:00,52.0,27.0,29.69,East,90,1.0,2.0,37,0.00,,,0.00,,2013-03-16 10:12:00,
2013-03-16 03:22:00,52.0,27.0,29.69,NNE,23,1.0,3.0,37,0.00,,,0.00,,2013-03-16 10:22:00,
2013-03-16 03:32:00,52.0,27.0,29.66,NNE,23,0.0,1.0,37,0.00,,,0.00,,2013-03-16 10:32:00,
2013-03-16 03:42:00,52.0,27.0,29.66,NNE,23,0.0,1.0,37,0.00,,,0.00,,2013-03-16 10:42:00,
2013-03-16 03:52:00,52.0,27.0,29.66,ENE,68,0.0,2.0,38,0.00,,,0.00,,2013-03-16 10:52:00,
2013-03-16 04:02:00,51.0,26.0,29.66,WSW,248,0.0,2.0,38,0.00,,,0.00,,2013-03-16 11:02:00,
2013-03-16 04:11:00,51.0,26.0,29.66,WSW,248,0.0,2.0,38,0.00,,,0.00,,2013-03-16 11:11:00,
2013-03-16 04:21:00,51.0,26.0,29.66,ESE,113,2.0,3.0,38,0.00,,,0.00,,2013-03-16 11:21:00,
2013-03-16 04:31:00,51.0,26.0,29.66,NNE,23,1.0,2.0,38,0.00,,,0.00,,2013-03-16 11:31:00,
2013-03-16 04:42:00,51.0,26.0,29.66,NNE,23,1.0,2.0,38,0.00,,,0.00,,2013-03-16 11:42:00,
2013-03-16 04:52:00,51.0,26.0,29.62,ENE,68,1.0,3.0,38,0.00,,,0.00,,2013-03-16 11:52:00,
2013-03-16 05:01:00,52.0,27.0,29.66,NNE,23,2.0,3.0,38,0.00,,,0.00,,2013-03-16 12:01:00,
2013-03-16 05:12:00,52.0,27.0,29.66,NNE,23,2.0,3.0,38,0.00,,,0.00,,2013-03-16 12:12:00,
2013-03-16 05:21:00,52.0,27.0,29.66,ESE,113,3.0,3.0,38,0.00,,,0.00,,2013-03-16 12:21:00,
2013-03-16 05:31:00,52.0,27.0,29.66,SE,135,2.0,4.0,38,0.00,,,0.00,,2013-03-16 12:31:00,
2013-03-16 05:42:00,52.0,27.0,29.66,SE,135,2.0,4.0,38,0.00,,,0.00,,2013-03-16 12:42:00,
2013-03-16 05:52:00,52.0,27.0,29.62,East,90,2.0,4.0,38,0.00,,,0.00,,2013-03-16 12:52:00,
2013-03-16 06:02:00,51.0,26.0,29.66,East,90,2.0,3.0,38,0.00,,,0.00,,2013-03-16 13:02:00,
2013-03-16 06:11:00,51.0,26.0,29.66,East,90,2.0,3.0,38,0.00,,,0.00,,2013-03-16 13:11:00,
2013-03-16 06:22:00,51.0,26.0,29.66,NE,45,1.0,2.0,38,0.00,,,0.00,,2013-03-16 13:22:00,
2013-03-16 06:31:00,51.0,27.0,29.62,North,0,1.0,3.0,39,0.00,,,0.00,,2013-03-16 13:31:00,
2013-03-16 06:41:00,51.0,27.0,29.62,North,0,1.0,3.0,39,0.00,,,0.00,,2013-03-16 13:41:00,
2013-03-16 06:52:00,51.0,27.0,29.66,NNE,23,1.0,2.0,39,0.00,,,0.00,,2013-03-16 13:52:00,
2013-03-16 07:01:00,51.0,28.0,29.66,NNE,23,1.0,3.0,40,0.00,,,0.00,,2013-03-16 14:01:00,
2013-03-16 07:11:00,51.0,28.0,29.66,NNE,23,1.0,3.0,40,0.00,,,0.00,,2013-03-16 14:11:00,
2013-03-16 07:22:00,51.0,28.0,29.66,NE,45,2.0,3.0,40,0.00,,,0.00,,2013-03-16 14:22:00,
2013-03-16 07:31:00,51.0,28.0,29.66,ESE,113,2.0,3.0,40,0.00,,,0.00,,2013-03-16 14:31:00,
2013-03-16 07:41:00,51.0,28.0,29.66,ESE,113,2.0,3.0,40,0.00,,,0.00,,2013-03-16 14:41:00,
2013-03-16 07:52:00,52.0,28.0,29.62,ENE,68,1.0,2.0,40,0.00,,,0.00,,2013-03-16 14:52:00,
2013-03-16 08:02:00,53.0,29.0,29.66,East,90,2.0,2.0,40,0.00,,,0.00,,2013-03-16 15:02:00,
2013-03-16 08:11:00,53.0,29.0,29.66,East,90,2.0,2.0,40,0.00,,,0.00,,2013-03-16 15:11:00,
2013-03-16 08:22:00,55.0,30.0,29.66,East,90,2.0,3.0,38,0.00,,,0.00,,2013-03-16 15:22:00,
2013-03-16 08:32:00,57.0,31.0,29.66,East,90,2.0,2.0,37,0.00,,,0.00,,2013-03-16 15:32:00,
2013-03-16 08:42:00,57.0,31.0,29.66,East,90,2.0,2.0,37,0.00,,,0.00,,2013-03-16 15:42:00,
2013-03-16 08:53:00,58.0,31.0,29.62,NE,45,2.0,3.0,36,0.00,,,0.00,,2013-03-16 15:53:00,
2013-03-16 09:02:00,61.0,33.0,29.62,ESE,113,0.0,3.0,35,0.00,,,0.00,,2013-03-16 16:02:00,
2013-03-16 09:22:00,62.0,33.0,29.62,East,90,1.0,2.0,34,0.00,,,0.00,,2013-03-16 16:22:00,
2013-03-16 09:32:00,65.0,35.0,29.62,SSE,158,0.0,1.0,33,0.00,,,0.00,,2013-03-16 16:32:00,
2013-03-16 09:53:00,69.0,35.0,29.62,West,270,0.0,2.0,29,0.00,,,0.00,,2013-03-16 16:53:00,
2013-03-16 10:02:00,70.0,33.0,29.62,ESE,113,2.0,4.0,25,0.00,,,0.00,,2013-03-16 17:02:00,
2013-03-16 10:22:00,72.0,32.0,29.62,East,90,3.0,3.0,23,0.00,,,0.00,,2013-03-16 17:22:00,
2013-03-16 10:32:00,74.0,32.0,29.62,NE,45,3.0,4.0,21,0.00,,,0.00,,2013-03-16 17:32:00,
2013-03-16 10:52:00,75.0,32.0,29.59,SSE,158,5.0,6.0,21,0.00,,,0.00,,2013-03-16 17:52:00,
2013-03-16 11:02:00,73.0,31.0,29.59,SW,225,3.0,5.0,21,0.00,,,0.00,,2013-03-16 18:02:00,
2013-03-16 11:22:00,76.0,32.0,29.59,WSW,248,5.0,6.0,20,0.00,,,0.00,,2013-03-16 18:22:00,
2013-03-16 11:32:00,74.0,32.0,29.59,SE,135,3.0,5.0,21,0.00,,,0.00,,2013-03-16 18:32:00,
2013-03-16 11:53:00,77.0,30.0,29.59,South,180,3.0,6.0,18,0.00,,,0.00,,2013-03-16 18:53:00,
2013-03-16 12:01:00,79.0,27.0,29.56,South,180,4.0,9.0,15,0.00,,,0.00,,2013-03-16 19:01:00,
2013-03-16 12:21:00,78.0,27.0,29.59,SSW,203,5.0,9.0,15,0.00,,,0.00,,2013-03-16 19:21:00,
2013-03-16 12:31:00,78.0,27.0,29.56,SSE,158,4.0,6.0,15,0.00,,,0.00,,2013-03-16 19:31:00,
2013-03-16 12:52:00,76.0,25.0,29.59,South,180,4.0,9.0,15,0.00,,,0.00,,2013-03-16 19:52:00,
2013-03-16 13:02:00,78.0,27.0,29.59,SSW,203,4.0,9.0,15,0.00,,,0.00,,2013-03-16 20:02:00,
2013-03-16 13:11:00,78.0,27.0,29.59,SSW,203,4.0,9.0,15,0.00,,,0.00,,2013-03-16 20:11:00,
2013-03-16 13:21:00,79.0,27.0,29.59,South,180,4.0,6.0,15,0.00,,,0.00,,2013-03-16 20:21:00,
2013-03-16 13:31:00,80.0,28.0,29.59,SW,225,3.0,6.0,15,0.00,,,0.00,,2013-03-16 20:31:00,
2013-03-16 13:41:00,80.0,28.0,29.59,SW,225,3.0,6.0,15,0.00,,,0.00,,2013-03-16 20:41:00,
2013-03-16 13:52:00,80.0,23.0,29.56,WSW,248,3.0,8.0,12,0.00,,,0.00,,2013-03-16 20:52:00,
2013-03-16 14:01:00,80.0,23.0,29.59,West,270,6.0,16.0,12,0.00,,,0.00,,2013-03-16 21:01:00,
2013-03-16 14:22:00,81.0,24.0,29.56,SW,225,2.0,6.0,12,0.00,,,0.00,,2013-03-16 21:22:00,
2013-03-16 14:32:00,82.0,24.0,29.52,SW,225,6.0,11.0,12,0.00,,,0.00,,2013-03-16 21:32:00,
2013-03-16 14:42:00,82.0,24.0,29.52,SW,225,6.0,11.0,12,0.00,,,0.00,,2013-03-16 21:42:00,
2013-03-16 14:52:00,81.0,24.0,29.52,SSW,203,2.0,7.0,12,0.00,,,0.00,,2013-03-16 21:52:00,
2013-03-16 15:02:00,82.0,24.0,29.52,East,90,2.0,6.0,12,0.00,,,0.00,,2013-03-16 22:02:00,
2013-03-16 15:22:00,82.0,22.0,29.52,WNW,293,5.0,8.0,11,0.00,,,0.00,,2013-03-16 22:22:00,
2013-03-16 15:32:00,80.0,23.0,29.52,SSW,203,1.0,5.0,12,0.00,,,0.00,,2013-03-16 22:32:00,
2013-03-16 15:42:00,80.0,23.0,29.52,SSW,203,1.0,5.0,12,0.00,,,0.00,,2013-03-16 22:42:00,
2013-03-16 15:52:00,80.0,23.0,29.52,WSW,248,7.0,12.0,12,0.00,,,0.00,,2013-03-16 22:52:00,
2013-03-16 16:01:00,81.0,24.0,29.52,West,270,5.0,9.0,12,0.00,,,0.00,,2013-03-16 23:01:00,
2013-03-16 16:12:00,81.0,24.0,29.52,West,270,5.0,9.0,12,0.00,,,0.00,,2013-03-16 23:12:00,
2013-03-16 16:22:00,81.0,24.0,29.49,West,270,2.0,6.0,12,0.00,,,0.00,,2013-03-16 23:22:00,
2013-03-16 16:32:00,80.0,23.0,29.49,SW,225,5.0,9.0,12,0.00,,,0.00,,2013-03-16 23:32:00,
2013-03-16 16:42:00,80.0,23.0,29.49,SW,225,5.0,9.0,12,0.00,,,0.00,,2013-03-16 23:42:00,
2013-03-16 16:52:00,78.0,23.0,29.49,SW,225,10.0,14.0,13,0.00,,,0.00,,2013-03-16 23:52:00,
2013-03-16 17:01:00,76.0,22.0,29.49,SW,225,7.0,13.0,13,0.00,,,0.00,,2013-03-17 00:01:00,
2013-03-16 17:11:00,76.0,22.0,29.49,SW,225,7.0,13.0,13,0.00,,,0.00,,2013-03-17 00:11:00,
2013-03-16 17:22:00,74.0,20.0,29.49,South,180,7.0,12.0,13,0.00,,,0.00,,2013-03-17 00:22:00,
2013-03-16 17:31:00,71.0,19.0,29.52,NW,315,9.0,12.0,14,0.00,,,0.00,,2013-03-17 00:31:00,
2013-03-16 17:52:00,70.0,19.0,29.52,NNW,338,12.0,17.0,14,0.00,,,0.00,,2013-03-17 00:52:00,
2013-03-16 18:01:00,69.0,19.0,29.52,NW,315,12.0,22.0,15,0.00,,,0.00,,2013-03-17 01:01:00,
2013-03-16 18:21:00,67.0,25.0,29.56,WNW,293,4.0,7.0,20,0.00,,,0.00,,2013-03-17 01:21:00,
2013-03-16 18:31:00,67.0,27.0,29.59,NNE,23,4.0,6.0,22,0.00,,,0.00,,2013-03-17 01:31:00,
2013-03-16 18:41:00,67.0,27.0,29.59,NNE,23,4.0,6.0,22,0.00,,,0.00,,2013-03-17 01:41:00,
2013-03-16 18:52:00,66.0,27.0,29.56,East,90,2.0,6.0,23,0.00,,,0.00,,2013-03-17 01:52:00,
2013-03-16 19:02:00,65.0,26.0,29.56,North,0,3.0,3.0,23,0.00,,,0.00,,2013-03-17 02:02:00,
2013-03-16 19:11:00,65.0,26.0,29.56,North,0,3.0,3.0,23,0.00,,,0.00,,2013-03-17 02:11:00,
2013-03-16 19:21:00,64.0,26.0,29.56,ESE,113,2.0,4.0,24,0.00,,,0.00,,2013-03-17 02:21:00,
2013-03-16 19:32:00,63.0,27.0,29.56,ENE,68,4.0,9.0,25,0.00,,,0.00,,2013-03-17 02:32:00,
2013-03-16 19:42:00,63.0,27.0,29.56,ENE,68,4.0,9.0,25,0.00,,,0.00,,2013-03-17 02:42:00,
2013-03-16 19:52:00,63.0,27.0,29.52,West,270,2.0,4.0,25,0.00,,,0.00,,2013-03-17 02:52:00,
2013-03-16 20:02:00,62.0,28.0,29.56,North,0,2.0,3.0,27,0.00,,,0.00,,2013-03-17 03:02:00,
2013-03-16 20:11:00,62.0,28.0,29.56,North,0,2.0,3.0,27,0.00,,,0.00,,2013-03-17 03:11:00,
2013-03-16 20:21:00,61.0,28.0,29.56,West,270,2.0,3.0,28,0.00,,,0.00,,2013-03-17 03:21:00,
2013-03-16 20:32:00,60.0,28.0,29.59,WNW,293,1.0,2.0,29,0.00,,,0.00,,2013-03-17 03:32:00,
2013-03-16 20:52:00,59.0,28.0,29.56,ESE,113,2.0,3.0,30,0.00,,,0.00,,2013-03-17 03:52:00,
2013-03-16 21:02:00,59.0,30.0,29.59,East,90,0.0,2.0,33,0.00,,,0.00,,2013-03-17 04:02:00,
2013-03-16 21:12:00,59.0,30.0,29.59,East,90,0.0,2.0,33,0.00,,,0.00,,2013-03-17 04:12:00,
2013-03-16 21:22:00,58.0,30.0,29.62,NE,45,1.0,4.0,34,0.00,,,0.00,,2013-03-17 04:22:00,
2013-03-16 21:32:00,58.0,31.0,29.59,NNE,23,2.0,4.0,36,0.00,,,0.00,,2013-03-17 04:32:00,
2013-03-16 21:42:00,58.0,31.0,29.59,NNE,23,2.0,4.0,36,0.00,,,0.00,,2013-03-17 04:42:00,
2013-03-16 21:53:00,57.0,30.0,29.59,WNW,293,0.0,2.0,36,0.00,,,0.00,,2013-03-17 04:53:00,
2013-03-16 22:02:00,57.0,30.0,29.59,NNE,23,0.0,2.0,36,0.00,,,0.00,,2013-03-17 05:02:00,
2013-03-16 22:11:00,57.0,30.0,29.59,NNE,23,0.0,2.0,36,0.00,,,0.00,,2013-03-17 05:11:00,
2013-03-16 22:21:00,56.0,30.0,29.56,NNE,23,1.0,4.0,37,0.00,,,0.00,,2013-03-17 05:21:00,
2013-03-16 22:32:00,56.0,30.0,29.59,North,0,2.0,3.0,37,0.00,,,0.00,,2013-03-17 05:32:00,
2013-03-16 22:42:00,56.0,30.0,29.59,North,0,2.0,3.0,37,0.00,,,0.00,,2013-03-17 05:42:00,
2013-03-16 22:52:00,55.0,30.0,29.59,NNE,23,0.0,2.0,38,0.00,,,0.00,,2013-03-17 05:52:00,
2013-03-16 23:01:00,55.0,30.0,29.59,East,90,3.0,3.0,38,0.00,,,0.00,,2013-03-17 06:01:00,
2013-03-16 23:12:00,55.0,30.0,29.59,East,90,3.0,3.0,38,0.00,,,0.00,,2013-03-17 06:12:00,
2013-03-16 23:22:00,55.0,31.0,29.59,NE,45,1.0,5.0,39,0.00,,,0.00,,2013-03-17 06:22:00,
2013-03-16 23:31:00,54.0,30.0,29.59,ENE,68,2.0,3.0,39,0.00,,,0.00,,2013-03-17 06:31:00,
2013-03-16 23:42:00,54.0,30.0,29.59,ENE,68,2.0,3.0,39,0.00,,,0.00,,2013-03-17 06:42:00,
2013-03-16 23:52:00,54.0,30.0,29.59,East,90,0.0,2.0,40,0.00,,,0.00,,2013-03-17 06:52:00,